Main page
METAR-TAF:

METAR-TAF

Airports :

Juazeiro do Norte Airport

Juazeiro do Norte, Ceará, Brazil

latitude: 07-13-06S, longitude: 039-16-18W, elevation: 424 m

Current weather observation

The report was made 39 minutes ago, at 07:00 UTC
Calm wind
Temperature 24°C
Humidity 94%
Pressure 1015 hPa
Visibility 10 km or more
Few clouds at a height of 2000 ft

METAR: SBJU 190700Z 00000KT 9999 FEW020 24/23 Q1015

Time: 04:39 (07:39 UTC)


TAF: missing

Weather observations and forecasts of more than 4000 airports (METAR and TAF reports).

The available stations are represented by yellow and red dots on the map.

Hover mouse over dot to see the name of the station.

Then click to see weather observations and forecasts.

To change the map : click on the green buttons with a black cross to zoom in, on the green button with a dash to zoom out, or on the green arrows for adjacent maps.


METAR-TAF: